Jefferson, GA

5:08 AM EDT on May 27, 2018 (GMT -0400)
Jefferson

Weather History for K19A - March, 2013

Change the Weather History Date:

Tuesday, March 5, 2013

  Actual Average (KWDR) Record (KWDR)
Temperature  
Mean Temperature 52 °F -  
Max Temperature 66 °F 64 °F 79 °F (1976)
Min Temperature 39 °F 39 °F 8 °F (1960)
Degree Days  
Heating Degree Days 12    
Growing Degree Days 2 (Base 50)    
Moisture  
Dew Point 31 °F    
Average Humidity 47    
Maximum Humidity 67    
Minimum Humidity 32    
Precipitation  
Precipitation 0.00 in - - ()
Sea Level Pressure  
Sea Level Pressure 29.89 in    
Wind  
Wind Speed 6 mph (WSW)    
Max Wind Speed 26 mph    
Max Gust Speed 38 mph    
Visibility 10 miles    
Events Rain , Thunderstorm    
Averages and records for this station are not official NWS values.
T = Trace of Precipitation, MM = Missing Value Source: NWS Daily Summary

Daily Weather History Graph

Daily Weather History Graph

Search for Another Location

Airport or City:

Astronomy

Mar. 05, 2013 Rise Set
Actual Time 6:57 AM EST 6:34 PM EST
Civil Twilight 6:32 AM EST 6:59 PM EST
Nautical Twilight 6:03 AM EST 7:28 PM EST
Astronomical Twilight 5:34 AM EST 7:57 PM EST
Moon 1:57 AM EST (3/5) 12:23 PM EST (3/5)
Length of Visible Light 12h 26m
Length of Day
11h 36m
Last Quarter, 41% of the Moon is Illuminated
Mar 5
Last Quarter
Mar 11
New
Mar 19
First Quarter
Mar 27
Full
Apr 3
Last Quarter

Hourly Weather History & Observations

Time (EST) Temp. Windchill Dew Point Humidity Pressure Visibility Wind Dir Wind Speed Gust Speed Precip Events Conditions
12:15 AM 46.4 °F 45.2 °F 17.6 °F 32% 30.06 in 10.0 mi SSW 3.5 mph - N/A   Clear
12:35 AM 46.4 °F - 17.6 °F 32% 30.06 in 10.0 mi Calm Calm - N/A   Clear
12:55 AM 44.6 °F - 19.4 °F 37% 30.06 in 10.0 mi Calm Calm - N/A   Clear
1:15 AM 42.8 °F - 19.4 °F 39% 30.06 in 10.0 mi Calm Calm - N/A   Clear
1:35 AM 44.6 °F - 17.6 °F 34% 30.06 in 10.0 mi Calm Calm - N/A   Clear
1:55 AM 42.8 °F - 19.4 °F 39% 30.05 in 10.0 mi Calm Calm - N/A   Clear
2:15 AM 44.6 °F 43.1 °F 19.4 °F 37% 30.05 in 10.0 mi South 3.5 mph - N/A   Scattered Clouds
2:35 AM 41.0 °F 39.0 °F 23.0 °F 49% 30.03 in 10.0 mi SE 3.5 mph - N/A   Overcast
2:55 AM 42.8 °F - 23.0 °F 46% 30.02 in 10.0 mi Calm Calm - N/A   Overcast
3:15 AM 42.8 °F 41.1 °F 21.2 °F 42% 30.01 in 10.0 mi SE 3.5 mph - N/A   Overcast
3:35 AM 42.8 °F - 23.0 °F 46% 30.01 in 10.0 mi Calm Calm - N/A   Overcast
3:55 AM 44.6 °F - 21.2 °F 39% 30.00 in 10.0 mi Calm Calm - N/A   Overcast
4:15 AM 42.8 °F - 26.6 °F 53% 30.00 in 10.0 mi Calm Calm - N/A   Overcast
4:35 AM 44.6 °F - 23.0 °F 43% 30.00 in 10.0 mi Calm Calm - N/A   Overcast
4:55 AM 42.8 °F - 26.6 °F 53% 30.01 in 10.0 mi Calm Calm - N/A   Overcast
5:15 AM 42.8 °F - 24.8 °F 49% 30.01 in 10.0 mi Calm Calm - N/A   Overcast
5:55 AM 42.8 °F - 26.6 °F 53% 30.01 in 10.0 mi Calm Calm - N/A   Overcast
6:15 AM 42.8 °F - 26.6 °F 53% 30.01 in 10.0 mi Calm Calm - N/A   Overcast
6:35 AM 42.8 °F - 26.6 °F 53% 30.01 in 10.0 mi Calm Calm - N/A   Overcast
6:55 AM 42.8 °F - 28.4 °F 57% 30.00 in 10.0 mi Calm Calm - N/A   Overcast
7:15 AM 42.8 °F - 28.4 °F 57% 30.00 in 10.0 mi Calm Calm - N/A   Overcast
7:35 AM 44.6 °F - 28.4 °F 53% 30.00 in 10.0 mi Calm Calm - N/A   Overcast
7:55 AM 44.6 °F - 26.6 °F 49% 30.00 in 10.0 mi Calm Calm - N/A   Overcast
8:15 AM 44.6 °F - 26.6 °F 49% 30.00 in 10.0 mi Calm Calm - N/A   Overcast
8:35 AM 46.4 °F - 26.6 °F 46% 30.00 in 10.0 mi Calm Calm - N/A   Overcast
8:55 AM 48.2 °F - 28.4 °F 46% 30.00 in 10.0 mi SSW 3.5 mph - N/A   Overcast
9:15 AM 50.0 °F - 32.0 °F 50% 29.99 in 10.0 mi SW 4.6 mph - N/A   Overcast
9:35 AM 50.0 °F - 32.0 °F 50% 29.98 in 10.0 mi SSW 3.5 mph - N/A   Overcast
9:55 AM 50.0 °F - 32.0 °F 50% 29.98 in 10.0 mi SW 3.5 mph - N/A   Overcast
10:15 AM 50.0 °F - 33.8 °F 54% 29.97 in 10.0 mi WSW 4.6 mph - N/A   Overcast
10:35 AM 51.8 °F - 33.8 °F 50% 29.96 in 10.0 mi WSW 4.6 mph - N/A   Overcast
10:55 AM 55.4 °F - 35.6 °F 47% 29.94 in 10.0 mi SW 4.6 mph - N/A   Overcast
11:15 AM 59.0 °F - 37.4 °F 45% 29.93 in 10.0 mi SW 11.5 mph 19.6 mph N/A   Scattered Clouds
11:35 AM 62.6 °F - 37.4 °F 39% 29.91 in 10.0 mi SW 12.7 mph 20.7 mph N/A   Scattered Clouds
11:55 AM 62.6 °F - 37.4 °F 39% 29.89 in 10.0 mi SW 12.7 mph 18.4 mph N/A   Mostly Cloudy
12:15 PM 62.6 °F - 37.4 °F 39% 29.89 in 10.0 mi SW 13.8 mph 23.0 mph N/A   Mostly Cloudy
12:35 PM 64.4 °F - 37.4 °F 37% 29.87 in 10.0 mi WSW 11.5 mph 21.9 mph N/A   Overcast
12:55 PM 64.4 °F - 37.4 °F 37% 29.87 in 10.0 mi SW 13.8 mph 26.5 mph N/A   Overcast
1:15 PM 64.4 °F - 37.4 °F 37% 29.86 in 10.0 mi WSW 15.0 mph 20.7 mph N/A   Overcast
1:35 PM 64.4 °F - 37.4 °F 37% 29.84 in 10.0 mi WSW 15.0 mph 28.8 mph N/A   Overcast
1:55 PM 62.6 °F - 37.4 °F 39% 29.82 in 10.0 mi SW 12.7 mph 18.4 mph N/A   Overcast
2:15 PM 64.4 °F - 37.4 °F 37% 29.81 in 10.0 mi SW 10.4 mph 25.3 mph N/A   Overcast
2:35 PM 64.4 °F - 37.4 °F 37% 29.78 in 10.0 mi SW 15.0 mph 21.9 mph N/A   Overcast
2:55 PM 66.2 °F - 37.4 °F 35% 29.76 in 10.0 mi South 11.5 mph 24.2 mph N/A   Overcast
3:15 PM 66.2 °F - 37.4 °F 35% 29.75 in 10.0 mi SSW 12.7 mph 21.9 mph N/A   Overcast
3:35 PM 64.4 °F - 37.4 °F 37% 29.76 in 10.0 mi WSW 16.1 mph 25.3 mph N/A   Overcast
3:55 PM 64.4 °F - 37.4 °F 37% 29.74 in 10.0 mi SSW 18.4 mph 27.6 mph N/A   Overcast
4:15 PM 64.4 °F - 39.2 °F 40% 29.71 in 10.0 mi SSW 16.1 mph 19.6 mph N/A   Overcast
4:35 PM 62.6 °F - 42.8 °F 48% 29.69 in 10.0 mi South 9.2 mph 17.3 mph N/A Rain Light Rain
4:55 PM 60.8 °F - 44.6 °F 55% 29.66 in 7.0 mi South 15.0 mph 20.7 mph N/A Rain , Thunderstorm Rain
5:15 PM 60.8 °F - 44.6 °F 55% 29.68 in 10.0 mi SW 13.8 mph 20.7 mph N/A Rain , Thunderstorm Thunderstorms and Rain
5:35 PM 59.0 °F - 46.4 °F 63% 29.66 in 10.0 mi SW 10.4 mph 19.6 mph N/A Rain Light Rain
5:55 PM 55.4 °F - 44.6 °F 67% 29.72 in 7.0 mi West 13.8 mph 25.3 mph N/A Rain , Thunderstorm Light Thunderstorms and Rain
6:15 PM 55.4 °F - 44.6 °F 67% 29.73 in 10.0 mi West 12.7 mph 19.6 mph N/A   Scattered Clouds
6:35 PM 55.4 °F - 42.8 °F 63% 29.74 in 10.0 mi West 15.0 mph 20.7 mph N/A   Clear
6:55 PM 55.4 °F - 41.0 °F 58% 29.75 in 10.0 mi West 12.7 mph 26.5 mph N/A   Clear
7:15 PM 53.6 °F - 39.2 °F 58% 29.76 in 10.0 mi West 19.6 mph 27.6 mph N/A   Clear
7:35 PM 53.6 °F - 33.8 °F 47% 29.77 in 10.0 mi West 19.6 mph 29.9 mph N/A   Clear
7:55 PM 51.8 °F - 33.8 °F 50% 29.77 in 10.0 mi West 19.6 mph 31.1 mph N/A   Scattered Clouds
8:15 PM 51.8 °F - 32.0 °F 47% 29.78 in 10.0 mi West 15.0 mph 25.3 mph N/A   Scattered Clouds
8:35 PM 50.0 °F - 32.0 °F 50% 29.79 in 10.0 mi West 20.7 mph 25.3 mph N/A   Scattered Clouds
8:55 PM 48.2 °F - 32.0 °F 54% 29.80 in 10.0 mi West 21.9 mph 33.4 mph N/A   Mostly Cloudy
9:15 PM 46.4 °F 38.5 °F 30.2 °F 53% 29.81 in 10.0 mi WNW 21.9 mph 32.2 mph N/A   Mostly Cloudy
9:35 PM 44.6 °F 35.9 °F 30.2 °F 57% 29.82 in 10.0 mi WNW 23.0 mph 31.1 mph N/A   Overcast
9:55 PM 44.6 °F 35.3 °F 28.4 °F 53% 29.83 in 10.0 mi WNW 26.5 mph 32.2 mph N/A   Overcast
10:15 PM 42.8 °F 33.8 °F 23.0 °F 46% 29.84 in 10.0 mi WNW 21.9 mph 38.0 mph N/A   Mostly Cloudy
10:35 PM 42.8 °F 33.8 °F 21.2 °F 42% 29.85 in 10.0 mi WNW 21.9 mph 34.5 mph N/A   Overcast
10:55 PM 41.0 °F 31.9 °F 21.2 °F 45% 29.86 in 10.0 mi WNW 19.6 mph 34.5 mph N/A   Overcast
11:15 PM 41.0 °F 31.4 °F 19.4 °F 42% 29.86 in 10.0 mi WNW 21.9 mph 34.5 mph N/A   Overcast
11:35 PM 39.2 °F 29.3 °F 19.4 °F 45% 29.86 in 10.0 mi WNW 20.7 mph 27.6 mph N/A   Overcast
11:55 PM 39.2 °F 29.6 °F 19.4 °F 45% 29.86 in 10.0 mi WNW 19.6 mph 38.0 mph N/A   Overcast